Location: Dal�� Lhota
(48.7500°N, 14.0167°E)
Time: 07:35:06
(UTC+00:00)

Tiros 1 despin weight - All Passes

Search period start: 24 July 2021 00:00
Search period end: 03 August 2021 00:00
Orbit: 593 x 641 km, 48.2° (Epoch: 23 July)

Date Brightness Start Highest point End Pass type
(mag) Time Alt. Az. Time Alt. Az. Time Alt. Az.
24 Jul - 15:32:25 10° SW 15:36:42 36° SSE 15:40:57 10° E daylight
24 Jul - 17:13:17 10° WSW 17:17:58 77° S 17:22:36 10° E daylight
24 Jul - 18:54:51 10° W 18:59:31 78° S 19:04:07 10° ESE daylight
24 Jul - 20:36:32 10° W 20:40:47 37° SSW 20:44:59 10° SE visible
25 Jul - 14:08:51 10° S 14:11:55 17° SE 14:15:00 10° E daylight
25 Jul - 15:48:15 10° SW 15:52:48 52° SSE 15:57:20 10° E daylight
25 Jul - 17:29:32 10° W 17:34:14 85° S 17:38:54 10° E daylight
25 Jul - 19:11:08 10° W 19:15:45 64° SSW 19:20:18 10° ESE daylight
25 Jul - 20:53:06 10° W 20:56:47 24° SW 21:00:26 10° SSE visible
26 Jul - 14:23:53 10° SSW 14:27:52 28° SE 14:31:50 10° E daylight
26 Jul - 16:04:20 10° WSW 16:09:00 69° SSE 16:13:38 10° E daylight
26 Jul - 17:45:50 10° W 17:50:32 83° S 17:55:10 10° E daylight
26 Jul - 19:27:27 10° W 19:31:55 46° SSW 19:36:19 10° SE visible
26 Jul - 21:10:12 10° WSW 21:12:40 14° SW 21:15:08 10° S visible
27 Jul - 13:01:14 10° SSE 13:03:12 13° SE 13:05:10 10° ESE daylight
27 Jul - 14:39:29 10° SW 14:43:54 42° SSE 14:48:19 10° E daylight
27 Jul - 16:20:33 10° W 16:25:14 81° S 16:29:56 10° E daylight
27 Jul - 18:02:07 10° W 18:06:48 73° SSW 18:11:25 10° ESE daylight
27 Jul - 19:43:53 10° W 19:47:59 31° SSW 19:52:02 10° SSE visible
28 Jul - 13:15:32 10° S 13:19:03 21° SE 13:22:35 10° E daylight
28 Jul - 14:55:26 10° WSW 15:00:02 59° SSE 15:04:39 10° E daylight
28 Jul - 16:36:49 10° W 16:41:32 85° S 16:46:13 10° E daylight
28 Jul - 18:18:25 10° W 18:23:01 57° SSW 18:27:32 10° ESE daylight
28 Jul - 20:00:35 10° W 20:03:56 20° SW 20:07:15 10° S visible
29 Jul - 13:30:50 10° SSW 13:35:02 33° SSE 13:39:14 10° E daylight
29 Jul - 15:11:34 10° WSW 15:16:15 75° SSE 15:20:56 10° E daylight
29 Jul - 16:53:07 10° W 16:57:49 80° S 17:02:29 10° ESE daylight
29 Jul - 18:34:46 10° W 18:39:09 40° SSW 18:43:27 10° SE daylight
29 Jul - 20:18:16 10° WSW 20:19:47 11° SW 20:21:15 10° SSW visible
30 Jul - 12:07:31 10° S 12:10:18 16° SE 12:13:05 10° ESE daylight
30 Jul - 13:46:36 10° SW 13:51:07 48° SSE 13:55:38 10° E daylight
30 Jul - 15:27:49 10° W 15:32:32 84° S 15:37:13 10° E daylight
30 Jul - 17:09:24 10° W 17:14:04 67° SSW 17:18:40 10° ESE daylight
30 Jul - 18:51:16 10° W 18:55:09 26° SW 18:59:00 10° SSE daylight
31 Jul - 12:22:21 10° SSW 12:26:12 26° SE 12:30:03 10° E daylight
31 Jul - 14:02:38 10° WSW 14:07:17 66° SSE 14:11:56 10° E daylight
31 Jul - 15:44:06 10° W 15:48:49 84° S 15:53:30 10° E daylight
31 Jul - 17:25:42 10° W 17:30:15 50° SSW 17:34:44 10° SE daylight
31 Jul - 19:08:11 10° W 19:11:04 16° SW 19:13:55 10° S daylight
01 Aug - 11:00:18 10° SSE 11:01:35 11° SE 11:02:52 10° ESE daylight
01 Aug - 12:37:52 10° SW 12:42:13 39° SSE 12:46:35 10° E daylight
01 Aug - 14:18:49 10° WSW 14:23:31 79° S 14:28:13 10° E daylight
01 Aug - 16:00:23 10° W 16:05:05 76° SSW 16:09:45 10° ESE daylight
01 Aug - 17:42:05 10° W 17:46:19 34° SSW 17:50:31 10° SE daylight
02 Aug - 11:14:06 10° S 11:17:24 19° SE 11:20:44 10° E daylight
02 Aug - 12:53:45 10° WSW 12:58:20 55° SSE 13:02:56 10° E daylight
02 Aug - 14:35:05 10° W 14:39:48 85° S 14:44:30 10° E daylight
02 Aug - 16:16:41 10° W 16:21:18 60° SSW 16:25:54 10° ESE daylight
02 Aug - 17:58:42 10° W 18:02:18 22° SW 18:05:51 10° SSE daylight
